Location: DARK SKY Beskydy - Park tmavé oblohy, www.darkskybeskydy.cz
(49.4926°N, 18.5016°E)
Time: 04:28:13
(UTC+01:00)

N. Korean satellite - Pass Details

Date: 09 December 2022
Orbit: 407 x 441 km, 97.3° (Epoch: 05 February)

Event Time Altitude Azimuth Distance (km) Brightness Sun altitude
Rises 05:48:10 0° 5° (N) 2,510 10.1 -15.6°
Reaches altitude 10° 05:50:21 10° 356° (N) 1,622 9.0 -15.3°
Maximum altitude 05:53:31 34° 291° (WNW) 774 7.0 -14.8°
Drops below altitude 10° 05:56:38 10° 224° (SW) 1,583 8.9 -14.3°
Sets 05:58:45 0° 215° (SW) 2,439 10.0 -14.0°
